Location: Recife
(8.0585°S, 34.8848°W)
Time: 11:07:57
(UTC-03:00)

Transit 2A - Pass Details

Date: 14 April 2026
Orbit: 594 x 950 km, 66.7° (Epoch: 14 May)

Event Time Altitude Azimuth Distance (km) Brightness Sun altitude
Rises 20:30:40 0° 199° (SSW) 3,406 - -48.2°
Reaches altitude 10° 20:33:04 10° 198° (SSW) 2,514 - -48.8°
Maximum altitude 20:38:58 84° 110° (ESE) 923 - -50.3°
Drops below altitude 10° 20:45:13 10° 22° (NNE) 2,650 - -51.8°
Sets 20:47:48 0° 21° (NNE) 3,601 - -52.5°
